Weather History for State College, PA

Change the Weather History Date:

Sunday, December 23, 2012

  Actual Average Record
Temperature  
Mean Temperature 32 °F -  
Max Temperature 41 °F 35 °F 60 °F (1990)
Min Temperature 23 °F 20 °F -3 °F (1989)
Degree Days  
Heating Degree Days 33    
Moisture  
Dew Point 20 °F    
Average Humidity 65    
Maximum Humidity 80    
Minimum Humidity 39    
Precipitation  
Precipitation 0.00 in - - ()
Sea Level Pressure  
Sea Level Pressure 29.93 in    
Wind  
Wind Speed 10 mph (WSW)    
Max Wind Speed 15 mph    
Max Gust Speed 21 mph    
Visibility 10 miles    
Events      
Averages and records for this station are not official NWS values.
T = Trace of Precipitation, MM = Missing Value Source: NWS Daily Summary

Daily Weather History Graph

Daily Weather History Graph

Search for Another Location

Airport:

Trip Planner

Search our weather history database for the weather conditions in past years. The results will help you decide how hot, cold, wet, or windy it might be!

Date:

Astronomy

Dec. 23, 2012 Rise Set
Actual Time 7:33 AM EST 4:48 PM EST
Civil Twilight 7:02 AM EST 5:19 PM EST
Nautical Twilight 6:27 AM EST 5:53 PM EST
Astronomical Twilight 5:54 AM EST 6:27 PM EST
Moon 1:38 PM EST (12/23) 3:13 AM EST (12/23)
Length of Visible Light 10h 16m
Length of Day
9h 14m
Waxing Gibbous, 81% of the Moon is Illuminated
Dec 23
Waxing Gibbous
Dec 28
Full
Jan 4
Last Quarter
Jan 11
New
Jan 18
First Quarter

Hourly Weather History & Observations

Time (EST) Temp. Windchill Dew Point Humidity Pressure Visibility Wind Dir Wind Speed Gust Speed Precip Events Conditions
12:15 AM 29.8 °F 20.3 °F 20.3 °F 68% 29.95 in 10.0 mi West 11.5 mph 19.6 mph N/A   Overcast
12:35 AM 29.8 °F 20.3 °F 20.3 °F 68% 29.95 in 10.0 mi West 11.5 mph 20.7 mph N/A   Overcast
12:55 AM 29.8 °F 18.9 °F 20.3 °F 68% 29.94 in 10.0 mi West 15.0 mph - N/A   Overcast
1:15 AM 29.8 °F 20.9 °F 20.5 °F 68% 29.94 in 10.0 mi West 10.4 mph - N/A   Overcast
1:35 AM 29.7 °F 19.6 °F 20.5 °F 69% 29.94 in 10.0 mi WSW 12.7 mph 18.4 mph N/A   Overcast
1:55 AM 29.5 °F 19.3 °F 20.5 °F 69% 29.94 in 10.0 mi West 12.7 mph 18.4 mph N/A   Overcast
2:15 AM 29.3 °F 19.1 °F 20.5 °F 70% 29.94 in 10.0 mi West 12.7 mph 18.4 mph N/A   Overcast
2:35 AM 29.3 °F 20.2 °F 20.3 °F 69% 29.95 in 10.0 mi West 10.4 mph 17.3 mph N/A   Overcast
2:55 AM 29.1 °F 20.6 °F 20.3 °F 70% 29.96 in 10.0 mi WSW 9.2 mph - N/A   Overcast
3:15 AM 28.9 °F 19.8 °F 20.3 °F 70% 29.96 in 10.0 mi WSW 10.4 mph - N/A   Overcast
3:35 AM 28.6 °F 18.7 °F 20.1 °F 71% 29.95 in 10.0 mi WSW 11.5 mph - N/A   Overcast
3:55 AM 28.4 °F 19.1 °F 20.1 °F 71% 29.95 in 10.0 mi WSW 10.4 mph - N/A   Overcast
4:15 AM 28.0 °F 17.5 °F 19.6 °F 71% 29.95 in 10.0 mi WSW 12.7 mph - N/A   Overcast
4:35 AM 27.7 °F 18.8 °F 19.4 °F 71% 29.95 in 10.0 mi WSW 9.2 mph - N/A   Overcast
5:53 AM 24.8 °F 16.1 °F 17.6 °F 74% 29.94 in 10.0 mi WSW 8.1 mph - N/A   Clear
6:53 AM 23.0 °F 13.1 °F 17.6 °F 80% 29.95 in 10.0 mi WSW 9.2 mph - N/A   Clear
7:53 AM 23.0 °F 18.4 °F 17.6 °F 80% 29.94 in 10.0 mi SW 3.5 mph - N/A   Clear
8:53 AM 26.6 °F 21.2 °F 19.4 °F 74% 29.94 in 10.0 mi SW 4.6 mph - N/A   Clear
9:53 AM 30.2 °F 24.3 °F 17.6 °F 60% 29.93 in 10.0 mi SW 5.8 mph - N/A   Clear
10:53 AM 32.0 °F 24.8 °F 17.6 °F 55% 29.91 in 10.0 mi WSW 8.1 mph - N/A   Clear
11:53 AM 35.6 °F 27.5 °F 19.4 °F 52% 29.87 in 10.0 mi WSW 11.5 mph - N/A   Clear
12:53 PM 37.4 °F 30.8 °F 15.8 °F 41% 29.85 in 10.0 mi SW 9.2 mph - N/A   Clear
1:58 PM 39.2 °F 33.6 °F 17.6 °F 42% 29.83 in 10.0 mi WSW 8.1 mph - N/A   Clear
2:53 PM 41.0 °F 34.3 °F 17.6 °F 39% 29.83 in 10.0 mi WSW 11.5 mph - N/A   Clear
4:53 PM 35.6 °F 29.2 °F 19.4 °F 52% 29.86 in 10.0 mi WNW 8.1 mph - N/A   Clear
5:53 PM 33.8 °F 26.4 °F 19.4 °F 56% 29.87 in 10.0 mi WSW 9.2 mph - N/A   Clear
6:53 PM 32.0 °F 24.2 °F 21.2 °F 64% 29.89 in 10.0 mi WSW 9.2 mph - N/A   Clear
7:53 PM 32.0 °F 25.6 °F 21.2 °F 64% 29.92 in 10.0 mi West 6.9 mph - N/A   Clear
8:15 PM 32.2 °F 25.8 °F 21.0 °F 63% 29.92 in 10.0 mi WSW 6.9 mph - N/A   Clear
8:35 PM 31.1 °F 23.7 °F 21.0 °F 66% 29.92 in 10.0 mi WSW 8.1 mph - N/A   Clear
8:53 PM 32.0 °F 25.6 °F 21.2 °F 64% 29.93 in 10.0 mi WSW 6.9 mph - N/A   Clear
8:55 PM 31.6 °F 27.0 °F 21.0 °F 65% 29.93 in 10.0 mi SW 4.6 mph - N/A   Clear
9:15 PM 31.3 °F 26.6 °F 21.0 °F 66% 29.94 in 10.0 mi SSW 4.6 mph - N/A   Clear
9:35 PM 31.3 °F 25.6 °F 20.8 °F 65% 29.95 in 10.0 mi WSW 5.8 mph - N/A   Clear
9:55 PM 31.6 °F 26.0 °F 20.7 °F 64% 29.95 in 10.0 mi WSW 5.8 mph - N/A   Clear
10:15 PM 30.7 °F 24.9 °F 20.3 °F 65% 29.96 in 10.0 mi West 5.8 mph - N/A   Clear
10:35 PM 30.2 °F 25.4 °F 20.3 °F 67% 29.96 in 10.0 mi West 4.6 mph - N/A   Clear
10:55 PM 30.2 °F 25.4 °F 19.9 °F 66% 29.97 in 10.0 mi West 4.6 mph - N/A   Clear
11:15 PM 30.7 °F 26.0 °F 19.8 °F 64% 29.98 in 10.0 mi WNW 4.6 mph - N/A   Clear
11:35 PM 29.5 °F - 19.2 °F 66% 29.97 in 10.0 mi Calm Calm - N/A   Clear
11:55 PM 29.7 °F 26.1 °F 19.4 °F 66% 29.97 in 10.0 mi West 3.5 mph - N/A   Clear